Location: Essen
(51.4609°N, 7.0127°E)
Time: 17:13:25
(UTC+01:00)

ISS - Pass Details

Date: 13 November 2017
Orbit: 402 x 407 km, 51.6° (Epoch: 22 November)

Event Time Altitude Azimuth Distance (km) Brightness Sun altitude
Exits shadow 06:35:12 16° 262° (W) 1,145 -2.1 -11.1°
Maximum altitude 06:37:09 29° 211° (SSW) 778 -2.5 -10.8°
Drops below altitude 10° 06:40:01 10° 149° (SSE) 1,451 -0.3 -10.4°
Sets 06:42:15 0° 138° (SE) 2,308 1.1 -10.1°
